EW9253 Weather Reports


Display with metric or nautical units.
time (UTC)temp
F
wind
direction
speed
MPH
gust
MPH
rain 1hr
in
rain 24hr
in
rain mn
in
humidity
%
barometer
mb
20260503040015 45 126 0.0 2.0 0.00 0.00 0.00 68 1011.2
20260503034511 46 126 0.0 2.0 0.00 0.00 0.00 65 1011.5
20260503033010 47 126 0.0 0.0 0.00 0.00 0.00 64 1011.7
20260503031508 48 126 0.0 2.0 0.00 0.00 0.00 64 1011.9
20260503030006 49 126 0.0 1.0 0.00 0.00 0.00 60 1012.0
20260503024504 50 126 0.0 0.0 0.00 0.00 0.00 55 1012.3
20260503023011 50 126 0.0 1.0 0.00 0.00 0.00 56 1012.4
20260503021503 51 126 0.0 3.0 0.00 0.00 0.00 55 1012.5
20260503020002 51 124 0.0 2.0 0.00 0.00 0.00 53 1012.5
20260503014502 52 124 0.0 1.0 0.00 0.00 0.00 49 1012.5
20260503013001 53 124 0.0 2.0 0.00 0.00 0.00 49 1012.4
20260503011608 53 123 0.0 3.0 0.00 0.00 0.00 46 1012.5
20260503010100 54 221 0.0 4.0 0.00 0.00 0.00 44 1012.8
20260503004557 55 220 2.0 4.0 0.00 0.00 0.00 43 1012.8
20260503003104 55 209 3.0 7.0 0.00 0.00 0.00 41 1013.0
20260503001554 56 225 2.0 11.0 0.00 0.00 0.00 40 1013.1
20260503000108 56 324 3.0 9.0 0.00 0.00 0.00 39 1013.2
20260502234551 57 17 1.0 8.0 0.00 0.00 0.00 38 1013.3
20260502233051 57 332 2.0 12.0 0.00 0.00 0.00 37 1013.5
20260502231550 57 13 2.0 12.0 0.00 0.00 0.00 37 1013.4
20260502230051 58 301 3.0 15.0 0.00 0.00 0.00 33 1013.5
20260502224548 59 315 3.0 16.0 0.00 0.00 0.00 32 1013.5
20260502223047 59 211 3.0 12.0 0.00 0.00 0.00 31 1013.7
20260502221546 58 214 3.0 13.0 0.00 0.00 0.00 35 1013.7
20260502220046 58 340 3.0 12.0 0.00 0.00 0.00 32 1013.9
20260502214542 58 257 2.0 13.0 0.00 0.00 0.00 35 1014.0
20260502213041 59 213 6.0 16.0 0.00 0.00 0.00 31 1014.2
20260502211547 58 28 4.0 10.0 0.00 0.00 0.00 33 1014.3
20260502210037 58 11 5.0 16.0 0.00 0.00 0.00 33 1014.3
20260502204536 58 238 4.0 13.0 0.00 0.00 0.00 34 1014.5
20260502203034 58 354 1.0 14.0 0.00 0.00 0.00 33 1014.7
20260502201534 58 338 4.0 10.0 0.00 0.00 0.00 31 1015.2
20260502200038 58 251 7.0 19.0 0.00 0.00 0.00 36 1015.3
20260502194528 57 339 4.0 15.0 0.00 0.00 0.00 31 1015.7
20260502193024 56 1 9.0 20.0 0.00 0.00 0.00 34 1015.9
20260502191523 56 44 4.0 9.0 0.00 0.00 0.00 34 1016.0
20260502190021 56 326 4.0 13.0 0.00 0.00 0.00 35 1016.3
20260502184527 56 340 2.0 8.0 0.00 0.00 0.00 35 1016.3
20260502183015 55 324 6.0 12.0 0.00 0.00 0.00 36 1016.6
20260502181512 55 274 5.0 14.0 0.00 0.00 0.00 37 1016.9
20260502163103 52 223 4.0 16.0 0.00 0.00 0.00 38 1018.3
20260502161559 52 321 6.0 15.0 0.00 0.00 0.00 36 1018.4
20260502151549 50 206 2.0 9.0 0.00 0.00 0.00 45 1019.0
20260502123002 32 301 0.0 1.0 0.00 0.00 0.00 92 1020.2
20260502121559 30 337 0.0 1.0 0.00 0.00 0.00 92 1020.5
20260502114558 27 9 0.0 0.0 0.00 0.00 0.00 92 1020.3
20260502113056 25 57 0.0 1.0 0.00 0.00 0.00 91 1020.2
20260502111556 24 33 0.0 0.0 0.00 0.00 0.00 91 1020.1
20260502110055 24 33 0.0 0.0 0.00 0.00 0.00 91 1020.2
20260502104554 24 33 0.0 0.0 0.00 0.00 0.00 90 1020.2
20260502103051 25 33 0.0 0.0 0.00 0.00 0.00 90 1020.3
20260502101550 25 33 0.0 0.0 0.00 0.00 0.00 90 1020.4
20260502071533 27 33 0.0 0.0 0.00 0.00 0.00 86 1020.6
20260502070034 28 33 0.0 0.0 0.00 0.00 0.00 85 1020.6
20260502064532 28 33 0.0 1.0 0.00 0.00 0.00 85 1020.7
20260502063026 29 33 0.0 0.0 0.00 0.00 0.00 84 1020.8
20260502061524 29 33 0.0 0.0 0.00 0.00 0.00 83 1020.8
20260502060022 30 33 0.0 0.0 0.00 0.00 0.00 83 1020.7
20260502054521 30 33 0.0 0.0 0.00 0.00 0.00 82 1020.7
20260502053019 30 33 0.0 0.0 0.00 0.00 0.00 81 1020.8
20260502051517 30 33 0.0 0.0 0.00 0.00 0.00 81 1020.9
20260502050016 30 33 0.0 0.0 0.00 0.00 0.00 81 1020.8
20260502044516 30 33 0.0 0.0 0.00 0.00 0.00 81 1020.9
20260502043018 30 33 0.0 0.0 0.00 0.00 0.00 80 1020.8
20260502041518 31 33 0.0 0.0 0.00 0.00 0.00 78 1020.9